Location: Mactaquac Provincial Park
(45.9573°N, 66.8897°W)
Time: 08:04:28
(UTC-03:00)

Daily predictions for brighter satellites

Satellite Brightness Start Highest point End
(mag) Time Altitude Azimuth Time Altitude Azimuth Time Altitude Azimuth
Cosmos 2056 Rocket 4.1 21:33:35 10° N 21:38:31 42° ENE 21:43:21 10° SE
Cosmos 1656 Rocket 4.5 21:35:40 10° NW 21:40:56 50° WSW 21:46:12 10° S
Okean 1-7 Rocket 4.0 21:36:55 10° SSE 21:41:07 43° E 21:45:25 10° NNE
Cosmos 1833 Rocket 4.4 21:39:07 10° ESE 21:41:27 13° E 21:43:47 10° ENE
Cosmos 1437 Rocket 3.5 21:42:19 10° N 21:45:53 36° ENE 21:49:29 10° SE
Envisat 3.5 21:41:10 10° S 21:46:12 62° W 21:51:15 10° NNW
Meteor 2-4 Rocket 3.8 21:42:55 10° S 21:48:33 69° E 21:54:22 10° NNE
Cosmos 1536 Rocket 4.5 21:44:26 10° SSW 21:48:38 52° WNW 21:52:53 10° N
Cosmos 1437 4.4 21:45:54 10° SW 21:48:56 38° WNW 21:52:00 10° N
SAR-Lupe-1 4.3 21:45:31 10° S 21:49:05 71° WSW 21:52:42 10° NNW
NOSS 2-2 (E) 4.4 21:45:51 10° SW 21:49:55 58° NW 21:54:50 10° NE
Helios 1B rocket 2.6 21:46:00 10° N 21:50:09 79° WNW 21:54:17 10° SSW
Cosmos 1606 Rocket 4.2 21:47:49 10° N 21:51:53 39° ENE 21:55:56 10° SE
Cosmos 192 4.3 21:53:17 10° SSW 21:58:10 75° ESE 22:03:05 10° NNE
Cosmos 1726 Rocket 4.1 21:57:33 10° N 22:01:40 41° ENE 22:05:30 11° SE
Cosmos 405 3.0 21:58:43 10° NNW 22:02:19 82° W 22:05:51 10° S
Cosmos 2074 Rocket 4.5 21:57:22 10° NNW 22:03:33 63° W 22:09:43 10° S
Cosmos 1025 Rocket 3.0 22:01:37 10° S 22:05:51 70° E 22:10:06 10° NNE
USA 245 3.4 22:04:55 14° SE 22:06:33 26° ENE 22:08:33 10° NNE
Cosmos 1515 4.4 22:06:01 10° SSE 22:09:27 35° E 22:12:57 10° NNE
Cosmos 1980 Rocket 3.9 22:05:06 10° N 22:09:29 22° NE 22:13:48 10° E
Cosmos 1452 Rocket 4.5 22:05:36 10° N 22:10:25 35° ENE 22:14:43 12° ESE
Aureole 1 Rocket 2.8 22:07:47 10° SSW 22:10:55 57° WNW 22:13:52 10° NNE
Cosmos 2181 Rocket 4.5 22:05:26 10° SSE 22:11:23 44° E 22:17:17 10° NNE
COSMOS 2487 3.8 22:09:55 13° SSE 22:12:11 23° E 22:15:03 10° NE
SPOT 1/Viking Rocket 4.1 22:11:02 12° SE 22:15:29 46° ENE 22:20:24 10° N
Cosmos 2058 Rocket 3.6 22:11:51 10° N 22:16:06 43° ENE 22:19:33 15° SE
Cosmos 1371 Rocket 4.2 22:12:53 10° NNW 22:18:13 73° WSW 22:23:23 10° SSE
YAOGAN 11 4.1 22:14:35 12° SSE 22:18:32 71° ENE 22:22:53 10° N
DEBRIS 4.2 22:16:38 10° WSW 22:20:33 82° SSE 22:35:34 10° ENE
ARGOS 3.2 22:17:01 12° SSE 22:22:06 73° ENE 22:27:32 10° N
Okean 2 3.3 22:19:11 10° S 22:23:16 83° E 22:27:23 10° N
Meteor 1-23 Rocket 4.4 22:20:11 10° SSW 22:25:45 78° WNW 22:31:25 10° N
Cosmos 1441 Rocket 4.2 22:22:33 10° SSW 22:26:09 46° WNW 22:29:47 10° N
Lacrosse 5 rocket 3.9 22:22:46 10° NW 22:26:20 21° N 22:29:55 10° ENE
Tiangong 2 1.5 22:23:35 10° WSW 22:26:37 42° S 22:28:45 17° ESE
ERS-1 Rocket 3.4 22:22:09 10° S 22:27:06 60° WSW 22:32:05 10° NNW
CENTAUR R/B 4.5 22:21:30 10° NW 22:28:15 31° WSW 22:35:19 10° S
NOAA 11 4.4 22:23:49 10° S 22:29:15 74° WSW 22:34:43 10° NNW
Cosmos 962 Rocket 4.5 22:25:07 10° N 22:31:25 85° E 22:37:11 12° S
Terra 2.9 22:29:03 15° ESE 22:32:14 31° ENE 22:36:23 10° N
SPOT 5 2.6 22:30:14 15° SSE 22:33:51 88° ENE 22:38:14 10° NNW
H-2A R/B 3.2 22:38:05 18° ESE 22:40:50 34° ENE 22:44:56 10° N
MOS 1-B Rocket 4.3 22:35:57 10° S 22:41:41 67° WSW 22:48:16 10° NNW
IGS 5A 4.5 22:41:45 19° ESE 22:44:02 33° ENE 22:47:47 10° N
Cosmos 2278 3.8 22:39:23 10° NNW 22:45:08 81° WSW 22:49:20 19° SSE
USA 229 DEB 4.4 22:38:40 10° NNW 22:45:33 49° NE 22:51:40 14° ESE
USA 229 4.4 22:38:47 10° NNW 22:45:39 49° NE 22:51:46 14° ESE
Cosmos 2082 Rocket 2.5 22:41:51 10° S 22:47:09 47° ESE 22:52:33 10° NE
SL-8 Rocket 4.0 22:42:48 10° N 22:49:05 73° E 22:53:49 19° SSE
ATLAS CENTAUR R/B 3.8 22:49:32 10° N 22:50:48 11° NNE 22:52:03 10° NE
Cosmos 1626 Rocket 4.2 22:49:15 23° SE 22:51:13 36° E 22:55:12 10° NNE
Cosmos 2366 rocket 4.1 22:48:42 10° N 22:54:49 60° ENE 22:58:51 22° SSE
ISS -2.9 22:58:20 10° W 23:01:34 50° NNW 23:04:47 10° ENE
H-2A R/B 2.0 22:59:49 21° S 23:03:13 78° WSW 23:08:19 10° NNW
Cosmos 2369 4.1 22:59:15 10° NNW 23:04:53 58° WSW 23:08:44 20° S
Cosmos 1697 Rocket 2.7 23:00:14 10° NNW 23:05:53 78° ENE 23:09:12 26° SSE
Cosmos 2228 3.3 23:02:30 10° NNW 23:06:47 65° W 23:09:26 22° S
TELKOM 3 4.0 23:04:42 10° WNW 23:07:06 42° SSW 23:07:27 40° S
Cosmos 921 Rocket 4.0 23:05:28 10° NNW 23:09:42 41° WSW 23:12:33 18° SSW
SL-16 R/B 3.9 23:07:03 10° N 23:11:38 24° NE 23:15:46 12° E
Meteor 1-4 Rocket 2.4 23:09:30 10° NNW 23:13:07 83° W 23:14:27 36° S
Cosmos 1656 3.8 23:08:00 10° NNW 23:13:25 68° WSW 23:16:38 25° S
CZ-4B R/B 4.3 23:10:27 10° NNE 23:15:06 35° E 23:16:50 27° SE
CZ-4C R/B 4.4 23:16:18 23° E 23:17:14 27° ENE 23:20:20 10° N
Iridium 2 4.3 23:17:12 10° N 23:20:49 41° E 23:21:42 35° ESE
DMSP B5D2-2 4.0 23:16:46 10° NNE 23:22:06 82° ESE 23:25:39 21° S
Cosmos 1842 3.9 23:23:40 34° ESE 23:24:21 38° E 23:28:01 10° NNE
Cosmos 1833 Rocket 2.6 23:19:02 11° SSW 23:24:27 84° ESE 23:30:07 10° NNE
Orbus 7S? 4.3 23:17:59 10° NW 23:25:40 61° NNE 23:27:51 25° ESE
Cosmos 1602 Rocket 3.4 23:23:56 31° S 23:25:59 82° E 23:30:19 10° N
Timation 2 Rocket 4.0 23:23:59 20° S 23:28:22 60° ESE 23:34:24 10° NE
Cosmos 1271 Rocket 3.0 23:24:33 10° N 23:28:24 55° ENE 23:29:26 41° SE
SL-08 R/B 4.5 23:22:49 10° N 23:28:57 79° W 23:32:42 25° S
SL-19 R/B 4.4 23:28:07 38° SE 23:29:36 70° ENE 23:33:21 10° N
CZ-4 R/B 4.1 23:25:14 10° NNE 23:30:11 55° E 23:32:13 33° SSE
deb Chang Zheng 4 3.5 23:28:23 10° NNE 23:32:42 70° ESE 23:34:20 37° S
Cosmos 1269 Rocket 4.2 23:30:24 31° SSE 23:32:43 55° ESE 23:37:54 10° NNE
Cosmos 2218 Rocket 4.3 23:29:12 10° NNW 23:35:16 62° W 23:39:17 22° SSW
Meteor 2-14 Rocket 4.4 23:32:27 10° N 23:38:33 84° W 23:41:50 29° S
Cosmos 1420 Rocket 4.1 23:33:35 10° NNW 23:38:50 68° WSW 23:41:10 33° S
Cosmos 1953 3.0 23:38:33 10° N 23:42:27 41° ENE 23:43:18 36° ESE
Cosmos 389 Rocket 3.3 23:40:28 10° N 23:43:42 35° ENE 23:43:58 35° E
DELTA 2 DEB (DPAF) 4.2 23:42:18 40° SE 23:43:48 68° ENE 23:48:15 10° N
Cosmos 1048 Rocket 3.9 23:42:28 32° S 23:44:52 72° ESE 23:50:03 10° NNE
SME Rocket 4.1 23:44:43 28° ESE 23:46:37 39° ENE 23:50:27 10° N
CARTOSAT-1 4.3 23:50:14 30° SSW 23:51:53 44° W 23:56:03 10° NNW
Cosmos 2360 Rocket 4.1 23:48:03 10° N 23:52:22 22° NE 23:56:40 10° E
Cosmos 1980 Rocket 2.2 23:48:26 10° NNW 23:54:07 75° WSW 23:56:23 37° S
